User: anonymous   Login
Location: Unspecified
(0.0000°N, 0.0000°E)
Time: 06:10:40
(UTC+00:00)
Language:

FEDSAT - Orbit

View from above orbital plane
View from above orbital plane
View from above satellite
View from above satellite

Ground track
Ground track

The orbit data is extracted from the following two-line orbital elements,

1 27598U 02056B   17296.45601301 +.00000028 +00000-0 +27970-4 0  9998
2 27598 098.4489 247.9925 0008241 222.1271 137.9279 14.28637096774647
Epoch (UTC): 23 October 2017 10:56:39
Eccentricity: 0.0008241
inclination: 98.4489°
perigee height: 790 km
apogee height: 802 km
right ascension of ascending node: 247.9925°
argument of perigee: 222.1271°
revolutions per day: 14.28637096
mean anomaly at epoch: 137.9279°
orbit number at epoch: 77464

The dashed part of the orbit path shows where the satellite is in the earth's shadow,  

DLR